Regional Weather Roundup
Issued by NWS

Home | Current Version | Previous Version | Graphics & Text | Print | Product List | Glossary On
Versions: 1 2 3 4 5 6 7 8 9 10 11 12 13 14 15 16 17 18 19 20 21 22 23 24 25 26 27 28 29 30 31 32 33 34 35 36 37 38 39 40 41 42 43 44 45 46 47 48 49 50
000
ASUS45 KABQ 181610
RWRNM
WEATHER ROUNDUP FOR NEW MEXICO
NATIONAL WEATHER SERVICE ALBUQUERQUE NM
900 AM MST THU DEC 18 2014

NOTE: "FAIR" MEANS FEW OR NO CLOUDS BELOW 12,000 FEET AGL WITH NO
       SIGNIFICANT WEATHER OR OBSTRUCTIONS TO VISION.

      THIS PRODUCT IS RELEASED AS TWO VERSIONS.  ONE VERSION NEAR
      THE TOP OF THE HOUR CONTAINING PRELIMINARY DATA FROM ALBUQUERQUE
      AND OTHER STATIONS.  A FINAL VERSION WITH ADDITIONAL DATA IS
      ISSUED ABOUT 10 MINUTES AFTER THE HOUR.

NMZ501-503-504-510>518-181700-
NORTHWEST PLATEAU/NORTHCENTRAL MOUNTAINS

CITY           SKY/WX    TMP DP  RH WIND       PRES   REMARKS
FARMINGTON     CLOUDY    35  32  88 E3        30.13S FOG
LOS ALAMOS     SUNNY     30  24  79 SW5       30.13R WCI  25
SANTA FE       SUNNY     30  27  88 SW8       30.13R WCI  22
TAOS           CLOUDY    27  25  93 CALM      30.13R
ANGEL FIRE     CLOUDY    27  21  79 CALM      30.12R

$$
NMZ402-403-502-505>509-181700-
WESTCENTRAL MOUNTAINS/SOUTHWEST MOUNTAINS

CITY           SKY/WX    TMP DP  RH WIND       PRES   REMARKS
GALLUP         CLOUDY    32  26  78 S3        30.14S
GRANTS         CLOUDY    28  26  93 CALM      30.16S
SILVER CITY    CLOUDY    39  34  81 W5        30.17S

$$
NMZ407-409-411-412-181700-
SOUTHERN DESERTS

CITY           SKY/WX    TMP DP  RH WIND       PRES   REMARKS
LORDSBURG      CLOUDY    39  37  93 SE5       30.16S
DEMING         LGT RAIN  41  38  89 CALM      30.16S
LAS CRUCES     MOSUNNY   46  35  66 NW5       30.16S
HOLLOMAN AFB   SUNNY     43  35  74 SE6       30.14R
ALAMOGORDO     SUNNY     43  34  70 SE7       30.16R
T OR C         MOSUNNY   44  29  55 CALM      30.14S

$$
NMZ519>523-181700-
CENTRAL VALLEYS/CENTRAL HIGHLANDS

CITY           SKY/WX    TMP DP  RH WIND       PRES   REMARKS
ALBUQUERQUE    MOSUNNY   34  29  82 S3        30.17R
DOUBLE EAGLE   PTSUNNY   34  28  80 CALM      30.16R
MORIARTY ARPT  FAIR      36  28  74 W8        30.14R WCI  29
CLINES CORNERS SUNNY     29  24  82 W8        30.10R WCI  21
BELEN          FAIR      33  31  92 E3        30.16S
SOCORRO        FAIR      39  29  67 SE3       30.16R

$$
NMZ524>526-539-540-181700-
SOUTHCENTRAL MOUNTAINS

CITY           SKY/WX    TMP DP  RH WIND       PRES   REMARKS
RUIDOSO        SUNNY     34  28  80 NE5       30.16R WCI  30

$$
NMZ527>531-181700-
NORTHEAST HIGHLANDS/NORTHEAST PLAINS

CITY           SKY/WX    TMP DP  RH WIND       PRES   REMARKS
LAS VEGAS      SUNNY     33  23  66 NW7       30.07R WCI  27
RATON          SUNNY     29  23  78 E5        30.06R WCI  24
CLAYTON        SUNNY     31  27  85 S5        30.07R WCI  26

$$
NMZ532>537-181700-
EASTCENTRAL PLAINS

CITY           SKY/WX    TMP DP  RH WIND       PRES   REMARKS
TUCUMCARI      FOG       32  30  92 CALM      30.10R VSB 1/4
CANNON AFB     SUNNY     44  28  52 W18G25    30.09R
CLOVIS AIRPORT SUNNY     43  28  56 W14       30.09R

$$
NMZ028-029-538-181700-
SOUTHEAST PLAINS

CITY           SKY/WX    TMP DP  RH WIND       PRES   REMARKS
ROSWELL        SUNNY     45  31  58 NW3       30.13R
ARTESIA        MOSUNNY   41  32  70 N5        30.15R
CARLSBAD       PTSUNNY   56  35  45 W8        30.13R
HOBBS          SUNNY     48  32  53 NW7       30.14R


$$



USA.gov is the U.S. government's official web portal to all federal, state and local government web resources and services.